Flag for Slovakia Weather past 2 weeks in Košice, Slovakia

Now
59 °F

Partly sunny.


Feels Like: 58 °F
Forecast: 54 / 60 °F
Wind: 8 mph from South

Location: Kosice - Barca

Current Time: Oct 20, 2014 at 1:34:28 PM

Latest Report: Oct 20, 2014 at 1:00 PM


Visibility: N/A

Pressure: 30.01 "Hg

Humidity: 77%

Dew point: 52 °F

Location of KošiceLocation

Historic Weather in Košice — Graph

°F

Košice temperature yesterday

Maximum temperature yesterday: 59 °F (at 11:30 AM)
Minimum temperature yesterday: 45 °F (at 2:30 AM)
Average temperature yesterday: 53 °F

Past Weeks' High & Low Weather Summary

 TemperatureHumidityPressure
High73 °F (Oct 12, 1:30 PM)100% (Oct 5, 9:30 PM)30.39 "Hg (Oct 5, 9:30 PM)
Low45 °F (Oct 19, 2:30 AM)53% (Oct 11, 2:30 PM)29.77 "Hg (Oct 15, 4:00 PM)
Average57 °F86%30.04 "Hg
* Reported Oct 5 12:00 Noon — Oct 20 12:30 PM, Košice, Weather by CustomWeather, © 2014

Note: Actual official high and low records may vary slightly from our data, if they occured in-between our weather recording intervals... More about our weather records

Advertising

Košice weather history for previous 24 hours

 ConditionsComfort  
Time TempWeatherWind HumidityBarometerVisibility
12:30 PM
Oct 20
57 °FPartly sunny.8 mph82%30.01 "HgN/A
12:00 PM55 °FPartly sunny.7 mph88%30.04 "HgN/A
11:30 AM55 °FPartly sunny.6 mph82%30.04 "HgN/A
11:00 AM54 °FPartly sunny.5 mph88%30.04 "Hg5 mi
10:30 AM54 °FPartly sunny.7 mph88%30.04 "Hg5 mi
10:00 AM52 °FPartly sunny.7 mph94%30.04 "HgN/A
9:30 AM52 °FPartly sunny.5 mph94%30.04 "HgN/A
9:00 AM50 °FScattered clouds.7 mph94%30.07 "HgN/A
8:30 AM50 °FPassing clouds.9 mph94%30.07 "HgN/A
8:00 AM50 °FClear.10 mph94%30.07 "Hg10 mi
7:30 AM50 °FClear.10 mph94%30.07 "Hg10 mi
7:00 AM48 °FClear.10 mph94%30.07 "Hg10 mi
5:00 AM48 °FClear.9 mph100%30.09 "Hg10 mi
4:30 AM50 °FClear.9 mph94%30.09 "Hg10 mi
4:00 AM50 °FClear.10 mph94%30.09 "Hg10 mi
3:30 AM50 °FClear.9 mph94%30.09 "Hg10 mi
3:00 AM52 °FClear.9 mph94%30.12 "Hg10 mi
2:30 AM52 °FClear.10 mph94%30.12 "Hg10 mi
2:00 AM54 °FPassing clouds.14 mph88%30.12 "HgN/A
1:30 AM54 °FOvercast.12 mph88%30.15 "HgN/A
1:00 AM55 °FOvercast.13 mph82%30.15 "HgN/A
12:30 AM55 °FPassing clouds.9 mph88%30.15 "HgN/A
12:00 AM55 °FPassing clouds.12 mph88%30.15 "HgN/A
11:30 PM
Oct 19
55 °FPassing clouds.8 mph88%30.18 "HgN/A
11:00 PM54 °FPassing clouds.9 mph94%30.18 "HgN/A
10:30 PM55 °FPartly cloudy.13 mph88%30.18 "HgN/A
10:00 PM55 °FMostly cloudy.9 mph88%30.18 "HgN/A
9:30 PM55 °FMostly cloudy.10 mph88%30.18 "HgN/A
9:00 PM55 °FMostly cloudy.10 mph88%30.18 "HgN/A
8:30 PM55 °FPassing clouds.9 mph88%30.21 "HgN/A
8:00 PM55 °FPassing clouds.13 mph88%30.21 "HgN/A
7:30 PM57 °FPartly cloudy.12 mph82%30.21 "HgN/A
7:00 PM55 °FPassing clouds.12 mph88%30.21 "HgN/A
6:30 PM57 °FPartly sunny.10 mph82%30.21 "HgN/A
6:00 PM57 °FPartly sunny.12 mph82%30.21 "HgN/A
5:30 PM57 °FPartly sunny.9 mph82%30.21 "HgN/A
5:00 PM59 °FPartly sunny.9 mph77%30.24 "HgN/A
4:30 PM59 °FScattered clouds.9 mph77%30.24 "HgN/A
4:00 PM59 °FPartly sunny.12 mph77%30.24 "HgN/A
3:30 PM59 °FPartly sunny.13 mph77%30.27 "HgN/A
3:00 PM59 °FScattered clouds.8 mph77%30.27 "HgN/A
2:30 PM59 °FScattered clouds.13 mph72%30.27 "HgN/A
2:00 PM59 °FPassing clouds.12 mph68%30.30 "HgN/A
1:30 PM59 °FScattered clouds.12 mph72%30.30 "HgN/A
1:00 PM57 °FPartly sunny.9 mph72%30.33 "HgN/A
Weather by CustomWeather, © 2014

See weather overviewHow to use our weather pages